DIPPU LSZR-LSZR

Flight info

Callsign DIPPU
Flight time 0h 8m
Altitude 13500
Route VFR
Aircraft AEST/L-S/S

Departure

Time 2026-04-10 14:00
Airport Sankt Gallen Altenrhein Airport (LSZR)

Arrival

Time 2026-04-10 14:09
Airport Sankt Gallen Altenrhein Airport (LSZR)
Time Latitude Longitude Altitude Speed Heading
2026-04-10 13:52 47.48749 9.55428 1310 ft 0 kts 187°
2026-04-10 13:56 47.48748 9.55427 1310 ft 1 kts 194°
2026-04-10 13:56 47.48755 9.55407 1310 ft 1 kts 358°
2026-04-10 13:56 47.48761 9.55385 1310 ft 0 kts 231°
2026-04-10 13:57 47.48749 9.55358 1310 ft 6 kts 202°
2026-04-10 13:57 47.48745 9.55357 1310 ft 0 kts 182°
2026-04-10 13:57 47.48733 9.55354 1310 ft 6 kts 194°
2026-04-10 13:58 47.48666 9.55333 1310 ft 13 kts 188°
2026-04-10 13:58 47.48590 9.55287 1312 ft 13 kts 261°
2026-04-10 13:58 47.48603 9.55126 1310 ft 18 kts 279°
2026-04-10 13:58 47.48608 9.54947 1310 ft 9 kts 317°
2026-04-10 13:59 47.48620 9.54963 1310 ft 5 kts 101°
2026-04-10 13:59 47.48618 9.54977 1310 ft 0 kts 100°
2026-04-10 13:59 47.48615 9.55000 1310 ft 23 kts 99°
2026-04-10 14:00 47.48531 9.55721 1313 ft 106 kts 94°
2026-04-10 14:00 47.48413 9.56976 1342 ft 132 kts 99°
2026-04-10 14:00 47.48276 9.58264 1801 ft 124 kts 101°
2026-04-10 14:00 47.48209 9.59505 2384 ft 121 kts 78°
2026-04-10 14:01 47.48732 9.60571 2395 ft 136 kts 28°
2026-04-10 14:01 47.49623 9.60677 2476 ft 143 kts 334°
2026-04-10 14:01 47.50214 9.59543 2315 ft 144 kts 284°
2026-04-10 14:01 47.50381 9.58126 2307 ft 135 kts 280°
2026-04-10 14:02 47.50518 9.56812 2313 ft 126 kts 279°
2026-04-10 14:02 47.50632 9.55575 2259 ft 119 kts 277°
2026-04-10 14:02 47.50723 9.54374 2194 ft 117 kts 276°
2026-04-10 14:02 47.50692 9.53179 2085 ft 119 kts 250°
2026-04-10 14:03 47.50176 9.52266 1743 ft 118 kts 208°
2026-04-10 14:03 47.49414 9.52383 1454 ft 116 kts 140°
2026-04-10 14:03 47.49036 9.53335 1440 ft 103 kts 117°
2026-04-10 14:03 47.48740 9.54278 1418 ft 100 kts 113°
2026-04-10 14:04 47.48587 9.55286 1321 ft 99 kts 101°
2026-04-10 14:04 47.48500 9.56056 1311 ft 62 kts 98°
2026-04-10 14:04 47.48410 9.56915 1348 ft 106 kts 98°
2026-04-10 14:05 47.48163 9.59557 1570 ft 154 kts 92°
2026-04-10 14:05 47.48242 9.61139 1853 ft 157 kts 72°
2026-04-10 14:05 47.48644 9.62629 2194 ft 155 kts 67°
2026-04-10 14:05 47.48769 9.64173 2476 ft 156 kts 111°
2026-04-10 14:06 47.47992 9.65323 2359 ft 169 kts 158°
2026-04-10 14:06 47.46845 9.65837 2216 ft 171 kts 159°
2026-04-10 14:06 47.45758 9.66440 2230 ft 165 kts 180°
2026-04-10 14:06 47.44969 9.65606 2341 ft 146 kts 278°
2026-04-10 14:07 47.45432 9.64292 2256 ft 146 kts 283°
2026-04-10 14:07 47.45659 9.62928 2076 ft 126 kts 285°
2026-04-10 14:07 47.46093 9.61846 1819 ft 128 kts 322°
2026-04-10 14:07 47.46853 9.61263 1772 ft 121 kts 332°
2026-04-10 14:08 47.47581 9.60669 1738 ft 116 kts 317°
2026-04-10 14:08 47.48060 9.59737 1702 ft 115 kts 292°
2026-04-10 14:08 47.48241 9.58580 1535 ft 112 kts 280°
2026-04-10 14:08 47.48353 9.57486 1387 ft 103 kts 275°
2026-04-10 14:09 47.48452 9.56556 1310 ft 70 kts 277°
2026-04-10 14:09 47.48508 9.56008 1312 ft 43 kts 279°
2026-04-10 14:09 47.48547 9.55634 1312 ft 33 kts 278°
2026-04-10 14:09 47.48591 9.55346 1312 ft 26 kts 324°
2026-04-10 14:10 47.48730 9.55349 1310 ft 0 kts 33°
2026-04-10 14:10 47.48732 9.55366 1310 ft 3 kts 104°
2026-04-10 14:10 47.48721 9.55467 1310 ft 15 kts 92°
2026-04-10 14:10 47.48749 9.55491 1310 ft 9 kts
2026-04-10 14:11 47.48756 9.55491 1310 ft 0 kts